This is the latest recevied weather packets stored in our database for station/object W3AJR. If no packets are shown the sender has not sent any weather packets the latest 10 day(s).
| Time | Temp. | Humidity | Pressure | Rain* | Wind** | Luminosity | Snow |
|---|---|---|---|---|---|---|---|
| 1778204177 | 10.56° C | 89% | 1010.8 hPa | 0 mm | - | 0 W/m² | - |
| 1778203874 | 10.56° C | 88% | 1010.7 hPa | 0 mm | - | 0 W/m² | - |
| 1778203572 | 11.11° C | 87% | 1010.6 hPa | 0 mm | - | 0 W/m² | - |
| 1778203269 | 11.11° C | 87% | 1010.4 hPa | 0 mm | - | 0 W/m² | - |
| 1778202967 | 11.11° C | 86% | 1010.6 hPa | 0 mm | - | 0 W/m² | - |
| 1778202664 | 11.11° C | 86% | 1010.2 hPa | 0 mm | - | 0 W/m² | - |
| 1778202361 | 11.67° C | 85% | 1010.4 hPa | 0 mm | - | 0 W/m² | - |
| 1778202059 | 11.67° C | 84% | 1010.6 hPa | 0 mm | - | 0 W/m² | - |
| 1778201755 | 11.67° C | 84% | 1010.5 hPa | 0 mm | - | 0 W/m² | - |
| 1778201452 | 11.67° C | 83% | 1010.3 hPa | 0 mm | - | 0 W/m² | - |
| 1778201147 | 11.67° C | 82% | 1010.2 hPa | 0 mm | - | 0 W/m² | - |
| 1778200845 | 12.22° C | 82% | 1010 hPa | 0 mm | - | 0 W/m² | - |
| 1778200541 | 12.22° C | 82% | 1010 hPa | 0 mm | - | 0 W/m² | - |
| 1778200239 | 12.22° C | 81% | 1009.9 hPa | 0 mm | - | 0 W/m² | - |
| 1778199935 | 12.22° C | 80% | 1009.9 hPa | 0 mm | - | 0 W/m² | - |
| 1778199632 | 12.22° C | 79% | 1009.9 hPa | 0 mm | - | 0 W/m² | - |
| 1778199328 | 12.78° C | 78% | 1009.7 hPa | 0 mm | - | 0 W/m² | - |
| 1778199024 | 12.78° C | 77% | 1009.6 hPa | 0 mm | - | 1 W/m² | - |
| 1778198720 | 12.78° C | 76% | 1009.9 hPa | 0 mm | - | 2 W/m² | - |
| 1778198418 | 12.78° C | 76% | 1010 hPa | 0 mm | - | 4 W/m² | - |
| 1778198114 | 13.33° C | 75% | 1009.7 hPa | 0 mm | - | 7 W/m² | - |
| 1778197812 | 13.33° C | 75% | 1009.7 hPa | 0 mm | - | 9 W/m² | - |
| 1778197508 | 13.33° C | 75% | 1009.5 hPa | 0 mm | - | 10 W/m² | - |
| 1778197204 | 13.33° C | 74% | 1009.5 hPa | 0 mm | - | 14 W/m² | - |
| 1778196901 | 13.89° C | 73% | 1009.3 hPa | 0 mm | - | 19 W/m² | - |
* Rain latest hour (hover to see other rain measurements)
** Current wind speed in m/s (hover to see current wind gust speed)